LexMAWeather

Lexington, Massachusetts, USA

71°F
5/21/2018 8:02pm 
  • Lexington Conditions: Clear
  • Temperature: 71.1°F / 21.7°CColder 3.2°F than last hour.
  • Dew Point: 47.5°FIncreased 2.5°Fsince last hour.
  • Humidity: 43%Increased 8.0% since last hour.
  • Wind: WSW 2 mph, 10-min avg: 1 mph, gust: 4 mph
  • Barometer: 30.05 in Steady
  • Visibility: 10 miles
  • Rain Today: 0.00 in
  •   

Regional Weather Roundup
for Boston, MA

        
633 
ASUS41 KBOX 212310
RWRBOX

REGIONAL WEATHER ROUNDUP
NATIONAL WEATHER SERVICE BOSTON/NORTON MA
700 PM EDT MON MAY 21 2018

NOTE:  "FAIR" INDICATES FEW OR NO CLOUDS BELOW 12,000 FEET WITH NO 
SIGNIFICANT WEATHER AND/OR OBSTRUCTIONS TO VISIBILITY.

MAZALL-220000-
EASTERN MASSACHUSETTS
  
CITY           SKY/WX    TMP DP  RH WIND       PRES   REMARKS
BOSTON         PTSUNNY   77  38  24 W12       30.07R                  
BEVERLY        FAIR      69  50  50 E6        30.06S                  
LAWRENCE       FAIR      79  39  23 W8        30.07S                  
BEDFORD        FAIR      75  42  30 SW9       30.06S                  
BLUE HILL        N/A     68  47  46 S14G21    30.09R                  
NORWOOD        FAIR      72  49  44 S13       30.08R                  
MARSHFIELD     FAIR      72  48  43 SW10      30.08R                  
PLYMOUTH       FAIR      67  45  45 S8        30.11R                  
TAUNTON        FAIR      67  45  45 S6        30.11R                  
NEW BEDFORD    FAIR      63  47  55 SW9       30.12R                  
$$

MAZALL-220000-
CAPE COD AND THE ISLANDS
  
CITY           SKY/WX    TMP DP  RH WIND       PRES   REMARKS
FALMOUTH       FAIR      63  41  45 SW8       30.14R                  
HYANNIS        FAIR      62  47  57 S10       30.11S                  
CHATHAM        FAIR      60  52  74 SW8       30.14R                  
PROVINCETOWN   FAIR      61  48  62 SW13      30.11R                  
NANTUCKET      FAIR      57  49  74 SW7       30.14S                  
MARTHAS VNYRD  FAIR      61  45  55 SW12      30.14R                  
$$
 
MAZALL-220000-
CENTRAL AND WESTERN MASSACHUSETTS
  
CITY           SKY/WX    TMP DP  RH WIND       PRES   REMARKS
WORCESTER      FAIR      71  44  37 SW7       30.12R                  
FITCHBURG      FAIR      76  40  27 NW8       30.08S                  
ORANGE         FAIR      76  39  26 W7        30.10R                  
SPRINGFIELD    MOSUNNY   77  36  23 NW5       30.08F                  
WESTFIELD      FAIR      77  39  25 W7        30.09F                  
NORTH ADAMS    FAIR      73  43  33 W7        30.11S                  
PITTSFIELD     FAIR      71  41  33 W8        30.12F                  
$$
 
RIZALL-220000-
RHODE ISLAND
  
CITY           SKY/WX    TMP DP  RH WIND       PRES   REMARKS
PROVIDENCE     PTSUNNY   68  48  48 S10       30.12R                  
NEWPORT        FAIR      61  47  59 S8        30.14R                  
BLOCK ISLAND     N/A    N/A N/A N/A MISG        N/A                   
SMITHFIELD     FAIR      68  50  52 MISG      30.11S                  
WESTERLY       FAIR      65  47  52 SW10G17   30.15R                  
$$
 
CTZALL-220000-
CONNECTICUT
  
CITY           SKY/WX    TMP DP  RH WIND       PRES   REMARKS
BRADLEY INTL   PTSUNNY   77  41  27 W8        30.10S                  
HARTFORD       FAIR      78  39  24 W9        30.10R                  
BRIDGEPORT     FAIR      67  54  63 S8        30.12S                  
DANBURY        FAIR      75  44  33 W3        30.13S                  
GROTON         FAIR      61  50  67 SW9       30.13S                  
NEW HAVEN      FAIR      66  54  65 S8        30.13S                  
CHESTER        FAIR      72  45  37 S8        30.14R                  
MERIDEN        FAIR      72  45  37 S9        30.11F                  
WILLIMANTIC    FAIR      77  45  32 SW3       30.10S                  
OXFORD         FAIR      74  42  31 W5        30.14S                  
$$

MEZ002-015-021-024-NHZ003-005-008-011-012-014-VTZ005-008-220000-
NORTHERN NEW ENGLAND
  
CITY           SKY/WX    TMP DP  RH WIND       PRES   REMARKS
PORTLAND ME    FAIR      77  38  24 W9        30.02R                  
BANGOR ME      MOCLDY    74  37  26 NW9       29.98R                  
CONCORD NH     FAIR      77  39  25 W10       30.06R                  
MANCHESTER NH  FAIR      80  35  19 W10G20    30.05S                  
NASHUA NH      FAIR      77  42  28 W7        30.07S                  
PORTSMOUTH NH  MOSUNNY   76  39  25 W7        30.03S                  
JAFFREY NH     FAIR      74  38  27 VRB7      30.11S                  
KEENE NH       FAIR      77  40  26 NW5       30.09S                  
BURLINGTON VT  FAIR      78  41  26 N8        30.07R                  
MT. WASHINGTON PTSUNNY   45  32  61 NW49G58     N/A                   
$$

NYZ052-076-220000-
EASTERN NEW YORK
  
CITY           SKY/WX    TMP DP  RH WIND       PRES   REMARKS
ALBANY         FAIR      75  41  29 SW10      30.10F                  
NEW YORK CITY  FAIR      71  48  43 S10       30.13S                  
$$
 
ANZALL-220000-
MARINE OBSERVATIONS
  
STATION/POSITION TIME  TEMP    WIND        PRES    VSBY  WAVE
                       AIR SEA DIR/SP/G                  HT/PER
                 (UTC) (F)     (DEG/KT/KT) (MB)    (MI)  (FT/S)
BOSTON BUOY      2250   61 56  150/ 14/ 16 1018.0R         1/ 8
BUZZARDS BAY     2200   59     210/ 16/ 16 1020.8F
NANTUCKET SOUND  2250   57 54  230/  8/ 10 1020.5R         1/ 5
MASS BAY-STELLWA 2204   58 53              1016.4S         2/ 8
ISLE OF SHOALS   2300   61     180/ 18/ 19 1017.1R
S OF BLOCK IS    2243      53                N/A           3/ 8
$$

......................KEY.........................
  SKY/WX - SKY CONDITION/PRESENT WEATHER
  TMP    - TEMPERATURE IN FAHRENHEIT
  DWPT   - DEWPOINT IN FAHRENHEIT
  RH     - RELATIVE HUMIDITY IN PERCENT
  WIND   - DIRECTION AND SPEED IN MPH
  PRES   - MEAN SEA LEVEL PRESSURE IN INCHES OF HG
  WCI    - WIND CHILL INDEX
  VSB    - VISIBILITY IN MILES
  HX     - HEAT INDEX
  TC     - TEMPERATURE IN CELSIUS
  VRB    - VARIABLE WIND DIRECTION
  N/A    - NOT AVAILABLE